[[{"header":{"parameterUnit":"m.s-1","parameterCategory":1,"la1":30.2991,"la2":30.254,"lo1":-89.0895,"lo2":-89.0444,"dy":0.0017,"dx":0.0017,"nx":28,"ny":28,"refTime":"2024-12-17T03:00:00:Z","depth":0,"parameterNumber":2,"parameterNumberName":"U-component_of_WINDS"},"data":[0,0,0,0,0,0,0,0,0,0,0,0,0,0,0,0,0,0,0,0,0,0,0,0,0,0,0,0,0,0,0,0,0,0,0,0,0,0,0,0,0,0,0,0,0,0,0,0,0,0,0,0,0,0,0,0,0,0,-2.8138,-2.8138,0,-2.8154,-2.8154,-2.8154,-2.8121,-2.812,-2.8119,-2.8118,-2.8132,-2.8133,-2.8134,0,0,0,0,0,0,0,0,0,0,0,0,0,-2.8077,-2.8078,-2.8138,-2.8138,-2.8139,-2.8154,-2.8154,-2.8155,-2.8121,-2.812,-2.8119,-2.8117,-2.8131,-2.8133,-2.8135,0,0,0,0,0,0,0,0,0,0,0,0,0,-2.8099,-2.8079,-2.8138,-2.8124,-2.8123,-2.8154,-2.8154,-2.8155,-2.8122,-2.812,-2.8118,-2.8117,-2.8131,-2.8133,-2.8135,-2.818,0,0,-2.8141,-2.8142,0,0,0,0,0,0,0,0,-2.8098,-2.8102,-2.8126,-2.8125,-2.8124,-2.8134,-2.8138,-2.8163,-2.8122,-2.8122,-2.8118,-2.8116,-2.8134,-2.8135,-2.8142,-2.818,-2.8181,-2.8141,-2.8143,-2.8143,-2.8144,0,0,0,0,0,0,0,-2.8097,-2.8101,-2.8144,-2.8126,-2.8125,-2.8116,-2.8117,-2.8142,-2.8137,-2.8122,-2.8119,-2.8122,-2.8133,-2.814,-2.8142,-2.8181,-2.8141,-2.8143,-2.8144,-2.8145,-2.8257,-2.8259,0,0,0,0,0,0,-2.8097,-2.81,-2.8144,-2.8145,-2.8107,-2.8119,-2.812,-2.8132,-2.8136,-2.8135,-2.8123,-2.812,-2.8137,-2.814,-2.8142,-2.8194,-2.8143,-2.8145,-2.8147,-2.8255,-2.8257,-2.8259,0,0,0,0,0,0,-2.8096,-2.8101,-2.8143,-2.8122,-2.8126,-2.8121,-2.8135,-2.8133,-2.8141,-2.8137,-2.8136,-2.8132,-2.8136,-2.8139,-2.8171,-2.8194,-2.8146,-2.8148,-2.8253,-2.8256,-2.8258,-2.8299,0,0,0,0,0,0,-2.8094,-2.8101,-2.8119,-2.8122,-2.8128,-2.8172,-2.8137,-2.8135,-2.8144,-2.8141,-2.8145,-2.8144,-2.8135,-2.8168,-2.8173,-2.8196,-2.815,-2.8251,-2.8254,-2.8258,-2.8296,-2.8303,-2.8309,0,0,0,0,0,-2.8092,-2.8129,-2.812,-2.8125,-2.8149,-2.8173,-2.8176,-2.8166,-2.8147,-2.8163,-2.8162,-2.8144,-2.8192,-2.8171,-2.8177,-2.8201,-2.8249,-2.8253,-2.8257,-2.8292,-2.8301,-2.8309,0,0,0,0,0,0,-2.8127,-2.8129,-2.8119,-2.8158,-2.8166,-2.8168,-2.8189,-2.8176,-2.8189,-2.8184,-2.817,-2.8172,-2.8205,-2.8207,-2.8184,-2.8245,-2.8217,-2.8222,-2.8242,-2.825,-2.8257,-2.8255,-2.8151,0,0,0,0,0,-2.8139,-2.816,-2.816,-2.8195,-2.8199,-2.8194,-2.8204,-2.8195,-2.8203,-2.8205,-2.8206,-2.8213,-2.8229,-2.824,-2.8255,-2.8297,-2.8296,-2.8316,-2.8323,-2.8328,-2.8332,-2.8353,-2.8361,-2.8272,-2.8272,-2.8272,0,0,-2.8164,-2.8168,-2.8182,-2.8202,-2.8207,-2.8227,-2.8197,-2.8219,-2.8234,-2.8209,-2.8238,-2.8239,-2.8246,-2.8282,-2.8298,-2.8284,-2.8357,-2.8333,-2.8337,-2.8338,-2.8358,-2.8366,-2.8374,-2.8275,-2.8274,-2.8274,0,0,-2.8221,-2.8226,-2.8255,-2.8261,-2.827,-2.8266,-2.8274,-2.8278,-2.8277,-2.8307,-2.8288,-2.8306,-2.8335,-2.834,-2.8347,-2.8407,-2.839,-2.8412,-2.8446,-2.8467,-2.8473,-2.848,-2.8499,-2.8507,-2.8417,-2.8417,-2.8417,0,-2.825,-2.8281,-2.8271,-2.8296,-2.8305,-2.8284,-2.8313,-2.8319,-2.8332,-2.8338,-2.8323,-2.8359,-2.8362,-2.8399,-2.8414,-2.8421,-2.8427,-2.841,-2.8474,-2.848,-2.8485,-2.8504,-2.8511,-2.8419,-2.8419,-2.8419,-2.8418,0,-2.8317,-2.8338,-2.8361,-2.8374,-2.8386,-2.8413,-2.8406,-2.8419,-2.8411,-2.8408,-2.8438,-2.8442,-2.8457,-2.8466,-2.8457,-2.8502,-2.8493,-2.8476,-2.8447,-2.8496,-2.8513,-2.852,-2.8423,-2.8422,-2.8421,-2.842,0,0,-2.8392,-2.8402,-2.841,-2.8416,-2.8425,-2.8441,-2.8467,-2.8482,-2.8493,-2.8503,-2.8523,-2.8549,-2.8534,-2.8541,-2.8533,-2.8552,-2.8597,-2.8533,-2.8532,-2.8543,-2.8645,-2.8656,-2.8664,-2.8588,-2.8589,-2.859,-2.8644,0,-2.8447,-2.8491,-2.8484,-2.8526,-2.8546,-2.8527,-2.855,-2.8557,-2.8556,-2.8572,-2.8571,-2.8588,-2.8568,-2.8572,-2.859,-2.8588,-2.8617,-2.8584,-2.8605,-2.8605,-2.8601,-2.8674,-2.8685,-2.8735,-2.8651,-2.8652,-2.8653,0,-2.8515,-2.8529,-2.8573,-2.8579,-2.8587,-2.8607,-2.8621,-2.8637,-2.8645,-2.8643,-2.8652,-2.8641,-2.8666,-2.8639,-2.8672,-2.865,-2.8659,-2.8659,-2.8661,-2.866,-2.863,-2.8673,-2.8751,-2.8758,-2.8663,-2.8663,-2.8662,0,-2.8564,-2.8593,-2.8624,-2.863,-2.8638,-2.8652,-2.8656,-2.8663,-2.8673,-2.8685,-2.8691,-2.8706,-2.8714,-2.8725,-2.8718,-2.87,-2.8752,-2.8725,-2.875,-2.875,-2.8759,-2.8758,-2.8838,-2.8769,-2.8769,-2.8769,-2.8768,0,-2.8623,-2.8651,-2.8646,-2.8664,-2.8694,-2.8686,-2.8716,-2.8718,-2.8724,-2.8742,-2.8728,-2.8745,-2.8736,-2.8752,-2.8746,-2.8774,-2.8778,-2.8776,-2.8774,-2.8776,-2.8776,-2.8779,-2.8775,-2.877,-2.877,-2.877,-2.8769,0,-2.8681,-2.8679,-2.8711,-2.8717,-2.8719,-2.8741,-2.8745,-2.8762,-2.8761,-2.8784,-2.8789,-2.8787,-2.8805,-2.88,-2.8819,-2.8816,-2.885,-2.8845,-2.8847,-2.8845,-2.8869,-2.8866,-2.8952,-2.8962,-2.8888,-2.8889,-2.889,0,-2.8719,-2.874,-2.8748,-2.876,-2.8765,-2.8784,-2.8794,-2.8787,-2.8799,-2.881,-2.8825,-2.8843,-2.8856,-2.8886,-2.8885,-2.89,-2.8894,-2.8923,-2.8895,-2.8897,-2.8892,-2.889,-2.8891,-2.8927,-2.8928,-2.8929,-2.8929,0,-2.8784,-2.8782,-2.8798,-2.8815,-2.8828,-2.884,-2.885,-2.8861,-2.8854,-2.8868,-2.8887,-2.8897,-2.8918,-2.8935,-2.8949,-2.8952,-2.8939,-2.8938,-2.8944,-2.8945,-2.8945,-2.8944,-2.886,-2.8936,-2.8935,-2.8935,-2.8934,-2.8934,-2.8831,-2.8849,-2.8858,-2.8876,-2.8884,-2.8895,-2.8911,-2.8912,-2.8928,-2.8945,-2.894,-2.8962,-2.8969,-2.8987,-2.8992,-2.9008,-2.8997,-2.9006,-2.9008,-2.901,-2.9012,-2.8945,-2.9011,-2.9011,-2.901,-2.901,-2.901,0,-2.8894,-2.89,-2.8917,-2.8933,-2.8948,-2.8937,-2.8948,-2.896,-2.898,-2.8989,-2.9002,-2.9024,-2.9041,-2.9042,-2.9058,-2.907,-2.9065,-2.9074,-2.9072,-2.9073,-2.9022,-2.9014,-2.9078,-2.9078,-2.9078,-2.9078,-2.9078,-2.9078,-2.8929,-2.8958,-2.8957,-2.899,-2.8995,-2.9016,-2.9023,-2.9033,-2.904,-2.9065,-2.9079,-2.9081,-2.9086,-2.9102,-2.9117,-2.9117,-2.9122,-2.9134,-2.9131,-2.9083,-2.9076,-2.907,-2.9062,-2.9135,-2.9135,-2.918,-2.918,-2.9181]},{"header":{"parameterUnit":"m.s-1","parameterCategory":1,"la1":30.2991,"la2":30.254,"lo1":-89.0895,"lo2":-89.0444,"dy":0.0017,"dx":0.0017,"nx":28,"ny":28,"refTime":"2024-12-17T03:00:00:Z","depth":0,"parameterNumber":3,"parameterNumberName":"V-component_of_WINDS"},"data":[0,0,0,0,0,0,0,0,0,0,0,0,0,0,0,0,0,0,0,0,0,0,0,0,0,0,0,0,0,0,0,0,0,0,0,0,0,0,0,0,0,0,0,0,0,0,0,0,0,0,0,0,0,0,0,0,0,0,0.8744,0.8744,0,0.8782,0.8782,0.8783,0.8843,0.8844,0.8845,0.8846,0.8882,0.8882,0.8882,0,0,0,0,0,0,0,0,0,0,0,0,0,0.8722,0.8722,0.8744,0.8744,0.8745,0.8782,0.8782,0.8783,0.8843,0.8844,0.8846,0.8847,0.8882,0.8882,0.8882,0,0,0,0,0,0,0,0,0,0,0,0,0,0.8743,0.8722,0.8744,0.8779,0.8783,0.8782,0.8782,0.8783,0.8843,0.8844,0.8846,0.8848,0.8882,0.8882,0.8882,0.8848,0,0,0.8882,0.8882,0,0,0,0,0,0,0,0,0.8741,0.8743,0.8774,0.8777,0.8781,0.881,0.8788,0.8805,0.8842,0.882,0.8846,0.8848,0.8856,0.8859,0.8862,0.885,0.8851,0.8882,0.8882,0.8882,0.8882,0,0,0,0,0,0,0,0.874,0.8742,0.8759,0.8774,0.8778,0.8793,0.8798,0.8791,0.8828,0.8822,0.8826,0.883,0.8859,0.8862,0.8863,0.8852,0.8882,0.8882,0.8882,0.8881,0.8816,0.8814,0,0,0,0,0,0,0.8733,0.874,0.8758,0.876,0.8765,0.8792,0.8797,0.8799,0.8829,0.8835,0.8829,0.8833,0.8861,0.8863,0.8865,0.8828,0.8882,0.8881,0.8881,0.8817,0.8815,0.8814,0,0,0,0,0,0,0.8733,0.8734,0.8756,0.8752,0.8755,0.8791,0.8792,0.8798,0.8802,0.8834,0.8841,0.8825,0.8863,0.8865,0.8853,0.883,0.8881,0.8881,0.8819,0.8817,0.8814,0.8754,0,0,0,0,0,0,0.8732,0.8734,0.8722,0.8751,0.8755,0.8743,0.879,0.8798,0.8802,0.8808,0.8832,0.8838,0.8864,0.8852,0.8852,0.8831,0.8881,0.8822,0.8818,0.8815,0.8759,0.875,0.8743,0,0,0,0,0,0.8731,0.8702,0.8721,0.8722,0.8741,0.8742,0.8745,0.8776,0.88,0.8788,0.8809,0.8837,0.8833,0.8851,0.8851,0.883,0.8823,0.8819,0.8815,0.8762,0.8752,0.8743,0,0,0,0,0,0,0.8668,0.8707,0.8727,0.8707,0.8721,0.8752,0.8738,0.8764,0.8771,0.8776,0.8814,0.8819,0.8802,0.8814,0.8833,0.8799,0.8832,0.8829,0.8792,0.8782,0.8775,0.8772,0.8881,0,0,0,0,0,0.8652,0.865,0.8684,0.8663,0.8669,0.8702,0.8704,0.8727,0.8742,0.8748,0.8768,0.8781,0.8783,0.8783,0.8786,0.8761,0.8767,0.8746,0.8738,0.8732,0.8728,0.8717,0.8708,0.8801,0.8801,0.8801,0,0,0.8618,0.8639,0.8636,0.8651,0.8664,0.8662,0.8706,0.8701,0.87,0.8747,0.8737,0.8752,0.8769,0.8751,0.8743,0.8761,0.8704,0.8727,0.8722,0.8722,0.8712,0.8703,0.8695,0.8799,0.8799,0.8799,0,0,0.8556,0.8572,0.8557,0.857,0.859,0.8613,0.8609,0.8637,0.8649,0.864,0.8676,0.8674,0.8676,0.8687,0.8693,0.8637,0.8664,0.8637,0.8596,0.8585,0.8577,0.8571,0.8552,0.8545,0.8633,0.8633,0.8633,0,0.8512,0.851,0.8545,0.8539,0.8545,0.8589,0.8574,0.8585,0.8604,0.8607,0.8627,0.8632,0.8646,0.8631,0.8618,0.8621,0.8618,0.8634,0.8576,0.857,0.8564,0.8547,0.8539,0.8629,0.863,0.863,0.863,0,0.8455,0.8453,0.8439,0.8458,0.8463,0.8451,0.8485,0.8485,0.8508,0.8529,0.8519,0.8539,0.8547,0.8545,0.8567,0.8534,0.8544,0.8569,0.8603,0.8552,0.8536,0.8529,0.8625,0.8626,0.8627,0.8628,0,0,0.8354,0.8395,0.8389,0.8399,0.8425,0.8424,0.8415,0.8425,0.8425,0.8437,0.8431,0.8432,0.8456,0.8463,0.8486,0.8476,0.8432,0.8503,0.8504,0.849,0.8398,0.8379,0.8371,0.845,0.8449,0.8448,0.8397,0,0.8298,0.8286,0.8319,0.8299,0.8298,0.8341,0.8333,0.8348,0.8367,0.8369,0.839,0.8391,0.8421,0.8426,0.8418,0.8439,0.8414,0.8443,0.8445,0.8444,0.844,0.8362,0.8343,0.8293,0.839,0.8389,0.8389,0,0.8231,0.8241,0.8222,0.8251,0.8252,0.8244,0.8257,0.8258,0.8276,0.8291,0.8299,0.8327,0.832,0.8353,0.8345,0.8364,0.8367,0.8377,0.8376,0.8378,0.8414,0.8363,0.8278,0.8271,0.8379,0.838,0.838,0,0.816,0.8169,0.816,0.8167,0.82,0.8194,0.8207,0.8227,0.8232,0.8242,0.8245,0.8254,0.8259,0.8265,0.8295,0.8316,0.8284,0.8318,0.8296,0.8295,0.8287,0.8287,0.8202,0.8287,0.8287,0.8288,0.8288,0,0.8095,0.8081,0.8129,0.8122,0.8109,0.8146,0.8131,0.8149,0.8166,0.8164,0.8201,0.8198,0.8238,0.8239,0.8262,0.8252,0.8254,0.8266,0.8272,0.8263,0.8261,0.8265,0.827,0.8286,0.8286,0.8286,0.8287,0,0.8014,0.8045,0.8037,0.807,0.8078,0.8066,0.8094,0.8089,0.8111,0.8108,0.811,0.8143,0.8147,0.8178,0.8187,0.8203,0.8185,0.8197,0.8179,0.8184,0.8159,0.8162,0.8075,0.8066,0.8155,0.8154,0.8154,0,0.797,0.7962,0.7994,0.7995,0.8008,0.801,0.8015,0.8051,0.8055,0.8076,0.8069,0.8076,0.8083,0.8087,0.8112,0.812,0.8134,0.8103,0.8135,0.8127,0.8135,0.8135,0.8135,0.8096,0.8095,0.8094,0.8093,0,0.789,0.7907,0.7913,0.7925,0.7931,0.7941,0.7954,0.7954,0.7994,0.7996,0.8001,0.8007,0.8018,0.8025,0.8038,0.8051,0.8079,0.8083,0.8078,0.8069,0.8059,0.8065,0.8161,0.8085,0.8086,0.8086,0.8087,0.8087,0.7828,0.7822,0.7845,0.7851,0.7865,0.7876,0.7875,0.7897,0.7902,0.7915,0.7935,0.7938,0.7957,0.7977,0.7989,0.7991,0.8007,0.8,0.7998,0.7996,0.7992,0.8058,0.7993,0.7993,0.7993,0.7994,0.7994,0,0.7751,0.7768,0.7773,0.7791,0.7796,0.7823,0.7839,0.7841,0.7843,0.7859,0.7866,0.7872,0.7879,0.7906,0.7915,0.7912,0.7925,0.7913,0.7914,0.7917,0.7976,0.798,0.7903,0.7903,0.7903,0.7903,0.7903,0.7903,0.7711,0.7704,0.7723,0.7723,0.774,0.7743,0.775,0.7761,0.7775,0.778,0.7787,0.7804,0.7825,0.7836,0.7844,0.7851,0.7854,0.7838,0.7849,0.7904,0.7913,0.7921,0.7925,0.7838,0.7838,0.7791,0.779,0.779]}]]